Teterboro, NJ

1:00 PM EDT on May 27, 2017 (GMT -0400)
Teterboro

Weather History for KTEB - June, 2013

Change the Weather History Date:

Friday, June 21, 2013

  Actual Average Record
Temperature  
Mean Temperature 72 °F -  
Max Temperature 86 °F 81 °F 97 °F (2012)
Min Temperature 61 °F 61 °F 53 °F (2004)
Cooling Degree Days 6    
Growing Degree Days 22 (Base 50)    
Moisture  
Dew Point 54 °F    
Average Humidity 53    
Maximum Humidity 67    
Minimum Humidity 39    
Precipitation  
Precipitation 0.00 in - - ()
Sea Level Pressure  
Sea Level Pressure 30.26 in    
Wind  
Wind Speed 7 mph (SSW)    
Max Wind Speed 13 mph    
Max Gust Speed 23 mph    
Visibility 10 miles    
Events      
Averages and records for this station are not official NWS values.
T = Trace of Precipitation, MM = Missing Value Source: NWS Daily Summary

Daily Weather History Graph

Daily Weather History Graph

Search for Another Location

Airport or City:

Trip Planner

Search our weather history database for the weather conditions in past years. The results will help you decide how hot, cold, wet, or windy it might be!

Date:

Astronomy

Jun. 21, 2013 Rise Set
Actual Time 5:24 AM EDT 8:31 PM EDT
Civil Twilight 4:51 AM EDT 9:04 PM EDT
Nautical Twilight 4:08 AM EDT 9:47 PM EDT
Astronomical Twilight 3:17 AM EDT 10:38 PM EDT
Moon 6:38 PM EDT (6/21) 3:38 AM EDT (6/21)
Length of Visible Light 16h 13m
Length of Day
15h 06m
Waxing Gibbous, 95% of the Moon is Illuminated
Jun 21
Waxing Gibbous
Jun 23
Full
Jun 30
Last Quarter
Jul 8
New
Jul 15
First Quarter

Hourly Weather History & Observations

Time (EDT) Temp. Heat Index Dew Point Humidity Pressure Visibility Wind Dir Wind Speed Gust Speed Precip Events Conditions
12:51 AM 66.0 °F - 48.9 °F 54% 30.27 in 10.0 mi SSW 9.2 mph - N/A   Clear
1:51 AM 64.0 °F - 48.0 °F 56% 30.27 in 10.0 mi SSW 6.9 mph - N/A   Clear
2:51 AM 63.0 °F - 48.0 °F 58% 30.27 in 10.0 mi SSW 4.6 mph - N/A   Clear
3:51 AM 62.1 °F - 48.9 °F 62% 30.26 in 10.0 mi South 5.8 mph - N/A   Clear
4:51 AM 61.0 °F - 50.0 °F 67% 30.27 in 10.0 mi South 3.5 mph - N/A   Clear
5:51 AM 61.0 °F - 50.0 °F 67% 30.28 in 10.0 mi Calm Calm - N/A   Clear
6:51 AM 63.0 °F - 52.0 °F 67% 30.29 in 10.0 mi Calm Calm - N/A   Clear
7:51 AM 66.9 °F - 53.1 °F 61% 30.29 in 10.0 mi SSW 4.6 mph - N/A   Clear
8:51 AM 72.0 °F - 53.1 °F 51% 30.30 in 10.0 mi WSW 6.9 mph - N/A   Clear
9:51 AM 73.9 °F - 53.1 °F 48% 30.28 in 10.0 mi WSW 9.2 mph - N/A   Clear
10:51 AM 77.0 °F - 55.0 °F 47% 30.28 in 10.0 mi WSW 6.9 mph - N/A   Clear
11:51 AM 79.0 °F - 55.9 °F 45% 30.28 in 10.0 mi Variable 5.8 mph - N/A   Clear
12:51 PM 80.1 °F 80.6 °F 57.9 °F 47% 30.27 in 10.0 mi WSW 8.1 mph 20.7 mph N/A   Clear
1:51 PM 81.0 °F 81.0 °F 57.0 °F 44% 30.25 in 10.0 mi South 5.8 mph - N/A   Scattered Clouds
2:51 PM 82.0 °F 81.6 °F 55.9 °F 41% 30.25 in 10.0 mi South 11.5 mph - N/A   Clear
3:51 PM 82.9 °F 82.1 °F 55.9 °F 39% 30.24 in 10.0 mi South 12.7 mph 23.0 mph N/A   Clear
4:51 PM 81.0 °F 80.8 °F 55.9 °F 42% 30.22 in 10.0 mi South 12.7 mph - N/A   Clear
5:51 PM 79.0 °F - 55.0 °F 44% 30.22 in 10.0 mi South 10.4 mph - N/A   Clear
6:51 PM 78.1 °F - 55.9 °F 46% 30.23 in 10.0 mi South 12.7 mph - N/A   Clear
7:51 PM 75.9 °F - 55.9 °F 50% 30.23 in 10.0 mi South 9.2 mph - N/A   Clear
8:51 PM 73.0 °F - 55.0 °F 53% 30.23 in 10.0 mi South 8.1 mph - N/A   Clear
9:51 PM 72.0 °F - 55.0 °F 55% 30.24 in 10.0 mi South 8.1 mph - N/A   Clear
10:51 PM 70.0 °F - 55.0 °F 59% 30.25 in 10.0 mi South 9.2 mph - N/A   Clear
11:51 PM 69.1 °F - 54.0 °F 58% 30.25 in 10.0 mi South 8.1 mph - N/A   Clear